Regional Weather Roundup
Issued by NWS Goodland, KS

Home | Current Version | Previous Version | Text Only | Print | Product List | Glossary Off
Versions: 1 2 3 4 5 6 7 8 9 10 11 12 13 14 15 16 17 18 19 20 21 22 23 24 25 26 27 28 29 30 31 32 33 34 35 36 37 38 39 40 41 42 43 44 45 46 47 48 49 50

000
ASUS43 KGLD 210259
RWRGLD

GOODLAND FORECAST AREA HOURLY WEATHER ROUNDUP
NATIONAL WEATHER SERVICE GOODLAND KS
800 PM MST TUE FEB 20 2018

...OFFICIAL OBSERVATIONS...

CITY           SKY/WX    TMP DP  RH WIND       PRES   REMARKS
GOODLAND KS    PTCLDY     5   0  79 NW6       30.25R
HILL CITY KS   CLOUDY    14   3  61 N10       30.34R WCI   1
IMPERIAL NEB   CLEAR      4  -2  76 W5        30.29R
MCCOOK NEB     CLEAR      9   2  73 N5        30.34R
AKRON CO       CLEAR      2  -4  76 S5        30.18R
BURLINGTON CO  PTCLDY    -4  -8  83 CALM      30.23R
LIMON CO       CLEAR      1  -1  91 CALM      30.14R
$$

...UNOFFICIAL OBSERVATIONS...

CITY           SKY/WX    TMP DP  RH WIND       PRES   REMARKS
NORTON KS      CLEAR      9   0  66 N9        30.32
SHARON SPRINGS   N/A     13   3  63 CALM        N/A
TRENTON NEB      N/A      1  32 100 CALM        N/A
KIT CARSON CO    N/A      1  -5  75 MISG        N/A
$$




USA.gov is the U.S. government's official web portal to all federal, state and local government web resources and services.